Weather History for LGAV - July, 2013

Change the Weather History Date:

Saturday, July 20, 2013

  Actual Average Record
Temperature  
Mean Temperature 79 °F -  
Max Temperature 87 °F - - ()
Min Temperature 71 °F - - ()
Cooling Degree Days 14    
Growing Degree Days 29 (Base 50)    
Moisture  
Dew Point 50 °F    
Average Humidity 36    
Maximum Humidity 53    
Minimum Humidity 27    
Precipitation  
Precipitation 0.00 in - - ()
Sea Level Pressure  
Sea Level Pressure 29.86 in    
Wind  
Wind Speed 11 mph ()    
Max Wind Speed 25 mph    
Max Gust Speed 39 mph    
Visibility 6.2 miles    
Events      
T = Trace of Precipitation, MM = Missing Value Source: Averaged Metar Reports

Daily Weather History Graph

Daily Weather History Graph

Search for Another Location

Airport or City:

Trip Planner

Search our weather history database for the weather conditions in past years. The results will help you decide how hot, cold, wet, or windy it might be!

Date:

Astronomy

Jul. 20, 2013 Rise Set
Actual Time 6:17 AM EEST 8:43 PM EEST
Civil Twilight 5:47 AM EEST 9:13 PM EEST
Nautical Twilight 5:10 AM EEST 9:50 PM EEST
Astronomical Twilight 4:28 AM EEST 10:31 PM EEST
Moon 6:28 PM EEST (7/20) 3:37 AM EEST (7/20)
Length of Visible Light 15h 25m
Length of Day
14h 25m
Waxing Gibbous, 92% of the Moon is Illuminated
Jul 20
Waxing Gibbous
Jul 22
Full
Jul 29
Last Quarter
Aug 7
New
Aug 14
First Quarter

Hourly Weather History & Observations

Time (EEST) Temp. Heat Index Dew Point Humidity Pressure Visibility Wind Dir Wind Speed Gust Speed Precip Events Conditions
12:20 AM 77.0 °F - 50.0 °F 39% 29.92 in - North 8.1 mph - N/A   Clear
12:50 AM 77.0 °F - 50.0 °F 39% 29.92 in - North 6.9 mph - N/A   Clear
1:20 AM 77.0 °F - 50.0 °F 39% 29.92 in - North 8.1 mph - N/A   Clear
1:50 AM 77.0 °F - 50.0 °F 39% 29.89 in - North 8.1 mph - N/A   Clear
2:20 AM 77.0 °F - 50.0 °F 39% 29.89 in - North 9.2 mph - N/A   Clear
2:50 AM 77.0 °F - 51.8 °F 41% 29.89 in - North 9.2 mph - N/A   Clear
3:20 AM 75.2 °F - 51.8 °F 44% 29.89 in - North 9.2 mph - N/A   Clear
3:50 AM 75.2 °F - 51.8 °F 44% 29.89 in - North 8.1 mph - N/A   Clear
4:20 AM 75.2 °F - 51.8 °F 44% 29.86 in - North 8.1 mph - N/A   Clear
4:50 AM 75.2 °F - 51.8 °F 44% 29.86 in - North 8.1 mph - N/A   Clear
5:20 AM 75.2 °F - 51.8 °F 44% 29.86 in - North 8.1 mph - N/A   Clear
5:50 AM 73.4 °F - 51.8 °F 47% 29.86 in - NNW 4.6 mph - N/A   Clear
6:20 AM 73.4 °F - 53.6 °F 50% 29.86 in - North 5.8 mph - N/A   Clear
6:50 AM 73.4 °F - 55.4 °F 53% 29.86 in - North 4.6 mph - N/A   Clear
7:20 AM 77.0 °F - 51.8 °F 41% 29.86 in - NW 8.1 mph - N/A   Clear
7:50 AM 77.0 °F - 51.8 °F 41% 29.86 in - NNW 5.8 mph - N/A   Clear
8:20 AM 78.8 °F - 51.8 °F 39% 29.86 in - North 6.9 mph - N/A   Clear
8:50 AM 80.6 °F - 51.8 °F 37% 29.86 in - North 15.0 mph - N/A   Clear
9:20 AM 82.4 °F 81.4 °F 53.6 °F 37% 29.86 in - North 15.0 mph - N/A   Clear
9:50 AM 82.4 °F - 51.8 °F 35% 29.86 in - NNW 12.7 mph - N/A   Clear
10:20 AM 84.2 °F - 51.8 °F 33% 29.86 in 6.2 mi NNW 11.5 mph - N/A   Partly Cloudy
10:50 AM 84.2 °F - 51.8 °F 33% 29.86 in 6.2 mi North 20.7 mph 39.1 mph N/A   Partly Cloudy
11:20 AM 86.0 °F - 51.8 °F 31% 29.86 in 6.2 mi North 19.6 mph 34.5 mph N/A   Partly Cloudy
11:50 AM 86.0 °F - 51.8 °F 31% 29.86 in 6.2 mi North 20.7 mph 33.4 mph N/A   Partly Cloudy
12:20 PM 84.2 °F - 51.8 °F 33% 29.86 in 6.2 mi NNE 23.0 mph - N/A   Partly Cloudy
12:50 PM 86.0 °F - 51.8 °F 31% 29.86 in 6.2 mi NNE 19.6 mph - N/A   Partly Cloudy
1:20 PM 86.0 °F - 51.8 °F 31% 29.86 in - NNE 24.2 mph - N/A   Clear
1:50 PM 86.0 °F - 51.8 °F 31% 29.86 in 6.2 mi NNE 24.2 mph - N/A   Partly Cloudy
2:20 PM 86.0 °F - 50.0 °F 29% 29.86 in 6.2 mi NNE 25.3 mph - N/A   Partly Cloudy
2:50 PM 87.8 °F - 50.0 °F 27% 29.86 in 6.2 mi NE 24.2 mph - N/A   Partly Cloudy
3:20 PM 87.8 °F - 50.0 °F 27% 29.86 in 6.2 mi NE 24.2 mph - N/A   Partly Cloudy
3:50 PM 87.8 °F - 50.0 °F 27% 29.86 in 6.2 mi NE 25.3 mph - N/A   Partly Cloudy
4:20 PM 86.0 °F - 51.8 °F 31% 29.83 in 6.2 mi NE 25.3 mph 36.8 mph N/A   Partly Cloudy
4:50 PM 86.0 °F - 50.0 °F 29% 29.83 in 6.2 mi ENE 19.6 mph 31.1 mph N/A   Partly Cloudy
5:20 PM 86.0 °F - 51.8 °F 31% 29.83 in 6.2 mi ENE 19.6 mph - N/A   Partly Cloudy
5:50 PM 86.0 °F - 51.8 °F 31% 29.83 in - ENE 18.4 mph - N/A   Clear
6:20 PM 84.2 °F - 50.0 °F 30% 29.83 in - NE 17.3 mph - N/A   Clear
6:50 PM 84.2 °F - 50.0 °F 30% 29.83 in - NE 21.9 mph - N/A   Clear
7:20 PM 82.4 °F - 51.8 °F 35% 29.83 in 6.2 mi NE 18.4 mph - N/A   Partly Cloudy
7:50 PM 82.4 °F - 46.4 °F 28% 29.83 in 6.2 mi NE 15.0 mph - N/A   Partly Cloudy
8:20 PM 80.6 °F - 46.4 °F 30% 29.83 in 6.2 mi NE 17.3 mph - N/A   Partly Cloudy
8:50 PM 77.0 °F - 46.4 °F 34% 29.86 in 6.2 mi NNE 11.5 mph - N/A   Partly Cloudy
9:20 PM 75.2 °F - 44.6 °F 34% 29.86 in 6.2 mi NNE 11.5 mph - N/A   Partly Cloudy
9:50 PM 73.4 °F - 42.8 °F 33% 29.86 in 6.2 mi North 11.5 mph - N/A   Partly Cloudy
10:20 PM 75.2 °F - 44.6 °F 34% 29.86 in 6.2 mi North 9.2 mph - N/A   Partly Cloudy
10:50 PM 71.6 °F - 44.6 °F 38% 29.86 in 6.2 mi WNW 4.6 mph - N/A   Partly Cloudy
11:20 PM 71.6 °F - 44.6 °F 38% 29.86 in 6.2 mi NW 3.5 mph - N/A   Partly Cloudy
11:50 PM 75.2 °F - 44.6 °F 34% 29.86 in 6.2 mi North 2.3 mph - N/A   Partly Cloudy